sat.trackr.live / text

‹ back to catalog

TOMORROW-S11

NORAD 67399 · 2026-004AN

PAYLOAD ACTIVE UNKNOWN

§ Identity

Operator
Country
US
Launch date
2026-01-11
Launch site
AFWTR
Launch vehicle
Mass (kg)
RCS (m²)

External: N2YO · Heavens-Above · Gunter

§ Orbital elements

Epoch: 2026-09-20T22:49:01.556544Z

Period
94.72 min
Inclination
97.4635°
Eccentricity
0.0007725
Mean motion
15.20278611 rev/d
Perigee alt
499.7 km
Apogee alt
510.3 km
Semi-major
6,883.1 km
B*
1.2833e-4
RAAN
262.1312°
Arg perigee
24.3697°
Mean anomaly
335.7902°
Rev number
3,831

§ Raw data

TOMORROW-S111 67399U 26004AN  26263.95071246  .00002719  00000+0  12833-3 0  99972 67399  97.4635 262.1312 0007725  24.3697 335.7902 15.20278611 38316

JSON: /api/v1/satellites/67399 · /tle

For live sub-satellite position, see the globe view (requires WebGL).

§ Visibility from observer

Set your observer location to see the next 7 days of passes ≥ 10°. The values pass through the URL so the page stays shareable.

No JS? Fill the form by hand. The geolocation button needs JavaScript.